Palmer, AK

11:28 PM AKST on December 13, 2017 (GMT -0900)
Palmer Municipal

Weather History for PAAQ - June, 2013

Change the Weather History Date:

Saturday, June 1, 2013

  Actual Average Record
Temperature  
Mean Temperature 50 °F -  
Max Temperature 55 °F 61 °F 79 °F (1964)
Min Temperature 46 °F 42 °F 33 °F (1961)
Degree Days  
Heating Degree Days 14    
Moisture  
Dew Point 45 °F    
Average Humidity 82    
Maximum Humidity 100    
Minimum Humidity 67    
Precipitation  
Precipitation 0.00 in - - ()
Sea Level Pressure  
Sea Level Pressure 30.19 in    
Wind  
Wind Speed 2 mph (SW)    
Max Wind Speed 5 mph    
Max Gust Speed -    
Visibility 9 miles    
Events      
Averages and records for this station are not official NWS values.
T = Trace of Precipitation, MM = Missing Value Source: NWS Daily Summary

Daily Weather History Graph

Daily Weather History Graph

Search for Another Location

Airport or City:

Trip Planner

Search our weather history database for the weather conditions in past years. The results will help you decide how hot, cold, wet, or windy it might be!

Date:

Astronomy

Jun. 01, 2013 Rise Set
Actual Time 4:27 AM AKDT 11:22 PM AKDT
Civil Twilight 2:29 AM AKDT 1:26 AM AKDT
Nautical Twilight Sun does not rise Sun does not rise
Astronomical Twilight Sun does not rise Sun does not rise
Moon 2:31 AM AKDT (6/1) 3:07 PM AKDT (6/1)
Length of Visible Light 22h 57m
Length of Day
18h 54m
Last Quarter, 39% of the Moon is Illuminated
Jun 1
Last Quarter
Jun 8
New
Jun 16
First Quarter
Jun 23
Full
Jun 29
Last Quarter

Hourly Weather History & Observations

Time (AKDT) Temp. Windchill Dew Point Humidity Pressure Visibility Wind Dir Wind Speed Gust Speed Precip Events Conditions
12:53 AM 51.1 °F - 46.0 °F 83% 30.17 in 10.0 mi Calm Calm - N/A   Overcast
1:53 AM 50.0 °F - 46.0 °F 86% 30.18 in 10.0 mi Calm Calm - N/A   Overcast
2:53 AM 50.0 °F - 46.0 °F 86% 30.19 in 10.0 mi Calm Calm - N/A   Overcast
3:53 AM 50.0 °F - 43.0 °F 77% 30.19 in 10.0 mi WNW 3.5 mph - N/A   Overcast
4:32 AM 50.0 °F - 42.8 °F 76% 30.18 in 10.0 mi WSW 3.5 mph - N/A   Overcast
4:53 AM 48.9 °F - 43.0 °F 80% 30.19 in 10.0 mi West 3.5 mph - N/A   Overcast
5:53 AM 48.0 °F - 44.1 °F 86% 30.19 in 10.0 mi WSW 3.5 mph - N/A   Overcast
6:53 AM 46.9 °F - 45.0 °F 93% 30.19 in 8.0 mi West 3.5 mph - N/A   Overcast
7:07 AM 46.4 °F - 44.6 °F 93% 30.19 in 6.0 mi Calm Calm - N/A   Overcast
7:36 AM 46.4 °F - 44.6 °F 93% 30.19 in 4.0 mi Calm Calm - N/A   Overcast
7:53 AM 46.9 °F - 45.0 °F 93% 30.19 in 4.0 mi WSW 3.5 mph - N/A   Overcast
8:53 AM 46.9 °F - 45.0 °F 93% 30.19 in 5.0 mi WSW 4.6 mph - N/A   Overcast
9:07 AM 46.4 °F 44.3 °F 44.6 °F 93% 30.19 in 6.0 mi West 4.6 mph - N/A   Overcast
9:36 AM 46.4 °F 45.2 °F 46.4 °F 100% 30.19 in 3.0 mi WSW 3.5 mph - N/A   Overcast
9:53 AM 48.0 °F - 46.0 °F 93% 30.19 in 5.0 mi WSW 3.5 mph - N/A   Overcast
10:53 AM 48.9 °F - 46.0 °F 90% 30.20 in 7.0 mi Calm Calm - N/A   Overcast
11:07 AM 48.2 °F - 44.6 °F 87% 30.19 in 10.0 mi SSW 3.5 mph - N/A   Overcast
11:31 AM 48.2 °F - 44.6 °F 87% 30.19 in 10.0 mi SSW 4.6 mph - N/A   Overcast
11:53 AM 50.0 °F - 45.0 °F 83% 30.19 in 10.0 mi Variable 4.6 mph - N/A   Overcast
12:53 PM 51.1 °F - 44.1 °F 77% 30.19 in 10.0 mi WSW 4.6 mph - N/A   Overcast
1:53 PM 52.0 °F - 43.0 °F 71% 30.19 in 10.0 mi Calm Calm - N/A   Overcast
2:53 PM 55.0 °F - 44.1 °F 67% 30.18 in 10.0 mi Variable 3.5 mph - N/A   Overcast
3:53 PM 54.0 °F - 44.1 °F 69% 30.17 in 10.0 mi South 3.5 mph - N/A   Overcast
4:53 PM 54.0 °F - 44.1 °F 69% 30.17 in 10.0 mi South 3.5 mph - N/A   Overcast
5:53 PM 55.0 °F - 45.0 °F 69% 30.17 in 10.0 mi SSE 3.5 mph - N/A   Overcast
6:53 PM 55.0 °F - 45.0 °F 69% 30.17 in 10.0 mi Calm Calm - N/A   Overcast
7:53 PM 55.0 °F - 45.0 °F 69% 30.18 in 10.0 mi Calm Calm - N/A   Overcast
8:53 PM 54.0 °F - 45.0 °F 72% 30.19 in 10.0 mi South 3.5 mph - N/A   Overcast
9:53 PM 54.0 °F - 45.0 °F 72% 30.19 in 10.0 mi Calm Calm - N/A   Overcast
10:53 PM 53.1 °F - 45.0 °F 74% 30.20 in 10.0 mi Calm Calm - N/A   Overcast
11:53 PM 52.0 °F - 45.0 °F 77% 30.21 in 10.0 mi ESE 3.5 mph - N/A   Overcast